Location: Observatoire de l'Aigle
(47.0607°N, 71.3152°W)
Time: 03:14:22
(UTC-04:00)

Amateur Radio Satellites - All Passes

Search period start: 30 May 2017 02:44
Search period end: 31 May 2017 02:44
Location: Observatoire de l'Aigle, 47.0607°N, 71.3152°W

Satellite Date Start Highest point End Downlink Frequencies (MHz)
Time Altitude Azimuth
AO-85 30 May 02:47:14 02:48:16 11° 110° (ESE) 02:49:18 145.980
Oscar 19 30 May 02:56:45 03:01:50 58° 289° (WNW) 03:06:51 437.125/150
AO-7 30 May 03:02:36 03:08:46 22° 90° (E) 03:14:54 .
MOZHAYETS 4 30 May 03:04:15 03:08:50 69° 74° (ENE) 03:13:28
Gurwin Techsat 1B 30 May 03:04:22 03:09:43 80° 286° (WNW) 03:15:02 435.225
PCSat 30 May 03:10:47 03:16:14 68° 54° (NE) 03:21:38 145.827
O/OREOS (USA 219) 30 May 03:18:55 03:23:22 51° 109° (ESE) 03:27:49 437.305
ITUPSAT 1 30 May 03:24:52 03:29:26 45° 261° (W) 03:34:04 437.325
KKS-1 30 May 03:31:03 03:34:32 23° 63° (ENE) 03:38:01 437.445
STARS 30 May 03:51:52 03:54:43 17° 61° (ENE) 03:57:34 437.465
SO-50 30 May 03:54:54 03:57:22 14° 25° (NNE) 03:59:48 436.795
BEESAT 30 May 03:56:52 04:00:39 23° 267° (W) 04:04:28 436.000
CUBESAT XI-V 30 May 04:00:30 04:05:02 50° 71° (ENE) 04:09:36 437.345
ITAMSAT 1 30 May 04:06:25 04:11:35 59° 101° (ESE) 04:16:44 435.822/435.867
YUBILEINY 30 May 04:19:11 04:22:13 12° 315° (NW) 04:25:14 435.215
AO-85 30 May 04:23:56 04:28:04 86° 307° (NW) 04:32:02 145.980
RS-15 30 May 04:32:52 04:44:31 46° 330° (NNW) 04:56:16 29.354- 29.394
BEESAT 2 30 May 04:39:12 04:42:08 20° 113° (ESE) 04:45:06 435.950
MOZHAYETS 4 30 May 04:43:55 04:46:29 15° 271° (W) 04:49:05
Gurwin Techsat 1B 30 May 04:46:08 04:48:49 14° 306° (NW) 04:51:31 435.225
BEESAT 3 30 May 04:49:17 04:53:12 64° 124° (ESE) 04:57:13 437.485
AO-7 30 May 04:54:10 05:02:35 89° 285° (WNW) 05:10:58 .
PCSat 30 May 04:55:07 04:59:07 21° 253° (WSW) 05:03:05 145.827
O/OREOS (USA 219) 30 May 04:59:25 05:03:04 23° 309° (NW) 05:06:43 437.305
KKS-1 30 May 05:06:39 05:10:51 42° 261° (W) 05:15:05 437.445
STRAND 1 30 May 05:22:50 05:24:14 11° 52° (NE) 05:25:37 437.568
STARS 30 May 05:26:20 05:30:38 58° 259° (WSW) 05:34:57 437.465
SO-50 30 May 05:34:25 05:38:51 52° 47° (NE) 05:43:16 436.795
CUBESAT XI-V 30 May 05:39:09 05:42:41 21° 268° (W) 05:46:14 437.345
ITAMSAT 1 30 May 05:46:40 05:50:40 23° 300° (WNW) 05:54:40 435.822/435.867
XW-2D 30 May 05:50:19 05:52:08 13° 89° (E) 05:53:56 145.860 - 145.880
NUDT-PHONESAT 30 May 05:55:38 05:56:33 11° 88° (E) 05:57:28 437.300
XW-2B 30 May 05:57:58 06:00:16 15° 90° (E) 06:02:34 145.730 - 145.750
AO-85 30 May 06:06:32 06:09:01 16° 327° (NNW) 06:11:29 145.980
XW-2F 30 May 06:07:20 06:10:05 18° 92° (E) 06:12:48 145.980 - 146.000
KAITUO 1B 30 May 06:08:30 06:10:51 16° 91° (E) 06:13:12 145.475/437.950
XW-2C 30 May 06:11:16 06:14:17 21° 93° (E) 06:17:17 145.795 - 145.815
BEESAT 2 30 May 06:15:41 06:19:35 49° 312° (NW) 06:23:32 435.950
DOVE 4 30 May 06:19:25 06:23:30 48° 100° (E) 06:27:41 437.250
BEESAT 3 30 May 06:28:06 06:31:10 21° 323° (NW) 06:34:16 437.485
CUTE-I 30 May 06:29:47 06:34:35 32° 96° (E) 06:39:21 437.470
AO-7 30 May 06:47:53 06:54:22 26° 312° (NW) 07:00:52 .
RS-15 30 May 06:50:05 07:01:02 34° 4° (N) 07:11:45 29.354- 29.394
LilacSat-2 30 May 06:53:21 06:57:15 67° 102° (ESE) 07:01:05 437.200
NO-84 30 May 06:54:41 06:58:00 21° 129° (SE) 07:01:17 435.350 FM
STRAND 1 30 May 06:57:24 07:02:26 65° 72° (ENE) 07:07:31 437.568
SO-50 30 May 07:15:27 07:19:01 23° 246° (WSW) 07:22:36 436.795
SEEDS 30 May 07:22:10 07:24:22 14° 89° (E) 07:26:33 437.485
XW-2D 30 May 07:22:53 07:26:40 56° 287° (WNW) 07:30:26 145.860 - 145.880
NUDT-PHONESAT 30 May 07:27:07 07:30:54 66° 286° (WNW) 07:34:37 437.300
XW-2B 30 May 07:31:01 07:34:44 47° 288° (WNW) 07:38:25 145.730 - 145.750
XW-2F 30 May 07:40:47 07:44:22 38° 290° (WNW) 07:47:55 145.980 - 146.000
KAITUO 1B 30 May 07:41:28 07:45:06 44° 289° (WNW) 07:48:43 145.475/437.950
XW-2C 30 May 07:45:04 07:48:33 33° 291° (WNW) 07:52:01 145.795 - 145.815
M-CUBED/EXP-1 PRIME 30 May 07:51:55 07:55:54 58° 67° (ENE) 07:59:36 437.505
BEESAT 2 30 May 07:56:41 07:58:17 12° 334° (NNW) 07:59:54 435.950
DOVE 4 30 May 07:58:01 08:00:55 18° 297° (WNW) 08:03:50 437.250
CUBEBUG 2 30 May 07:58:31 08:02:31 28° 94° (E) 08:06:33 437.445
UWE-3 30 May 08:00:52 08:04:09 19° 91° (E) 08:07:27 435.000/436.395/437.385
FO-29 30 May 08:01:29 08:03:36 12° 50° (NE) 08:05:47 435.910
HO-68 30 May 08:03:03 08:10:08 55° 101° (E) 08:17:08 435.675
AAUSAT CUBESAT 2 30 May 08:08:58 08:12:06 20° 92° (E) 08:15:12 437.432
CUTE-I 30 May 08:09:44 08:14:41 39° 294° (WNW) 08:19:37 437.470
CUTE 1.7 + AOD 2 30 May 08:14:47 08:19:04 74° 103° (ESE) 08:23:18 437.475
PRISM 30 May 08:15:04 08:16:46 12° 59° (ENE) 08:18:28 437.425
Oscar 11 30 May 08:18:47 08:19:51 11° 87° (E) 08:20:55 .
XW-2A 30 May 08:27:20 08:30:49 84° 283° (WNW) 08:34:16 145.665 - 145.685
LilacSat-2 30 May 08:29:17 08:31:00 13° 299° (WNW) 08:32:42 437.200
NO-84 30 May 08:30:51 08:35:15 83° 330° (NNW) 08:39:31 435.350 FM
STRAND 1 30 May 08:38:37 08:42:05 18° 270° (W) 08:45:34 437.568
TIGRISAT 30 May 08:47:34 08:50:41 20° 62° (ENE) 08:53:52 435.000
AO-73 30 May 08:48:03 08:52:01 29° 94° (E) 08:55:59 145.935
SEEDS 30 May 08:56:18 09:00:29 62° 286° (WNW) 09:04:36 437.485
ZACube-1 30 May 09:04:15 09:08:39 45° 98° (E) 09:13:03 437.345
RS-15 30 May 09:05:00 09:17:03 54° 37° (NE) 09:28:35 29.354- 29.394
UNISAT 6 30 May 09:19:22 09:23:25 41° 69° (ENE) 09:27:35 437.425
DELFI C3 30 May 09:26:36 09:28:53 15° 90° (E) 09:31:09 145.870
M-CUBED/EXP-1 PRIME 30 May 09:28:30 09:30:35 14° 262° (W) 09:32:37 437.505
CUBEBUG 2 30 May 09:34:57 09:39:11 37° 291° (WNW) 09:43:29 437.445
UWE-3 30 May 09:36:23 09:40:54 54° 288° (WNW) 09:45:27 435.000/436.395/437.385
FO-29 30 May 09:42:28 09:47:38 73° 72° (ENE) 09:53:08 435.910
AAUSAT CUBESAT 2 30 May 09:43:50 09:47:43 39° 290° (WNW) 09:51:33 437.432
PRISM 30 May 09:47:20 09:51:28 79° 258° (WSW) 09:55:36 437.425
HO-68 30 May 09:51:12 09:57:35 36° 301° (WNW) 10:03:58 435.675
Oscar 11 30 May 09:52:12 09:56:35 84° 285° (WNW) 10:00:56 .
CUTE 1.7 + AOD 2 30 May 09:52:12 09:54:19 14° 300° (WNW) 09:56:26 437.475
QB50P2 30 May 10:01:15 10:01:52 10° 57° (ENE) 10:02:30 145.880/145.840
EO-88 30 May 10:02:35 10:05:41 25° 95° (E) 10:08:45 145.990 - 145.960
NO-84 30 May 10:09:24 10:13:19 31° 346° (NNW) 10:17:02 435.350 FM
TIGRISAT 30 May 10:22:52 10:27:02 49° 261° (W) 10:31:19 435.000
YUBILEINY 30 May 10:23:54 10:30:59 26° 60° (ENE) 10:38:02 435.215
AO-73 30 May 10:24:08 10:28:16 34° 292° (WNW) 10:32:24 145.935
EO-79 30 May 10:34:07 10:37:09 20° 63° (ENE) 10:40:13 145.935-145.965
ZACube-1 30 May 10:41:04 10:44:40 23° 296° (WNW) 10:48:16 437.345
AIST 2D 30 May 10:51:36 10:55:01 47° 73° (ENE) 10:58:27 435.315
UNISAT 6 30 May 10:56:59 11:00:20 22° 268° (W) 11:03:44 437.425
DELFI C3 30 May 11:00:09 11:03:58 50° 288° (WNW) 11:07:45 145.870
AO-85 30 May 11:11:59 11:15:28 27° 42° (NE) 11:19:02 145.980
NANOSAT C BR1 30 May 11:15:28 11:19:26 45° 70° (ENE) 11:23:27 145.865
RS-15 30 May 11:18:05 11:30:02 63° 244° (WSW) 11:41:23 29.354- 29.394
DUCHIFAT 1 30 May 11:23:47 11:27:47 49° 71° (ENE) 11:31:51 145.980
POLYITAN 1 30 May 11:23:52 11:27:59 60° 73° (ENE) 11:32:10 437.675
BEESAT 3 30 May 11:26:27 11:29:16 18° 34° (NE) 11:32:03 437.485
BUGSAT 1 30 May 11:26:30 11:29:14 18° 62° (ENE) 11:31:59 437.445
FO-29 30 May 11:30:27 11:33:32 16° 273° (W) 11:36:43 435.910
Oscar 11 30 May 11:30:46 11:31:59 11° 303° (WNW) 11:33:12 .
QB50P2 30 May 11:32:43 11:36:55 81° 75° (ENE) 11:41:10 145.880/145.840
EO-88 30 May 11:36:12 11:39:19 26° 292° (WNW) 11:42:25 145.990 - 145.960
O/OREOS (USA 219) 30 May 11:47:06 11:50:44 23° 51° (NE) 11:54:19 437.305
NO-84 30 May 11:48:07 11:51:47 28° 8° (N) 11:55:13 435.350 FM
LO-87 30 May 12:04:57 12:08:31 81° 285° (WNW) 12:12:05 145.935 - 145.965
EO-79 30 May 12:08:35 12:12:37 45° 261° (W) 12:16:41 145.935-145.965
AO-7 30 May 12:18:15 12:21:34 13° 34° (NNE) 12:24:54 .
YUBILEINY 30 May 12:20:04 12:28:57 84° 263° (W) 12:37:47 435.215
SPROUT 30 May 12:21:35 12:24:55 22° 93° (E) 12:28:13 437.525
ESTCUBE 1 30 May 12:21:39 12:26:12 76° 103° (ESE) 12:30:40 437.505/2401.250
AIST 2D 30 May 12:26:51 12:28:30 13° 270° (W) 12:30:10 435.315
Oscar 19 30 May 12:37:39 12:42:30 41° 67° (ENE) 12:47:21 437.125/150
50 SAT 30 May 12:47:44 12:50:01 17° 93° (E) 12:52:18 437.505
Gurwin Techsat 1B 30 May 12:49:26 12:54:10 34° 65° (ENE) 12:58:54 435.225
AO-85 30 May 12:52:09 12:55:57 40° 239° (WSW) 12:59:55 145.980
NANOSAT C BR1 30 May 12:52:24 12:55:22 19° 268° (W) 12:58:23 145.865
BEESAT 2 30 May 12:52:57 12:56:43 35° 44° (NE) 13:00:29 435.950
VELOX 1 30 May 12:58:57 13:03:13 48° 100° (E) 13:07:27 145.980
BUGSAT 1 30 May 13:00:25 13:04:16 46° 260° (W) 13:08:11 437.445
DUCHIFAT 1 30 May 13:01:00 13:03:45 17° 269° (W) 13:06:32 145.980
POLYITAN 1 30 May 13:01:54 13:04:11 14° 271° (W) 13:06:28 437.675
BEESAT 3 30 May 13:03:19 13:07:22 82° 234° (SW) 13:11:21 437.485
UKube-1 30 May 13:05:21 13:07:48 15° 90° (E) 13:10:15 .
QB50P2 30 May 13:12:27 13:13:17 10° 273° (W) 13:14:08 145.880/145.840
DX 1 30 May 13:20:49 13:24:39 30° 96° (E) 13:28:28 434.975-435.025
NO-84 30 May 13:25:57 13:29:58 61° 29° (NNE) 13:33:38 435.350 FM
O/OREOS (USA 219) 30 May 13:26:03 13:30:25 48° 251° (WSW) 13:34:43 437.305
RS-15 30 May 13:33:44 13:39:43 15° 267° (W) 13:45:36 29.354- 29.394
ITAMSAT 1 30 May 13:50:03 13:53:42 20° 58° (ENE) 13:57:20 435.822/435.867
SPROUT 30 May 13:56:57 14:00:59 40° 290° (WNW) 14:04:59 437.525
ESTCUBE 1 30 May 13:59:56 14:02:24 15° 301° (WNW) 14:04:52 437.505/2401.250
AO-7 30 May 14:04:34 14:12:10 43° 57° (ENE) 14:19:50 .
Oscar 19 30 May 14:17:24 14:21:55 30° 265° (W) 14:26:27 437.125/150
YUBILEINY 30 May 14:18:40 14:24:21 19° 285° (WNW) 14:30:04 435.215
50 SAT 30 May 14:19:55 14:22:58 32° 290° (WNW) 14:26:01 437.505
Gurwin Techsat 1B 30 May 14:29:08 14:34:03 38° 263° (W) 14:39:00 435.225
BEESAT 2 30 May 14:30:51 14:34:25 29° 243° (WSW) 14:37:56 435.950
VELOX 1 30 May 14:36:09 14:39:21 20° 298° (WNW) 14:42:33 145.980
UKube-1 30 May 14:39:59 14:44:14 61° 288° (WNW) 14:48:28 .
DX 1 30 May 14:57:01 15:00:48 30° 294° (WNW) 15:04:35 434.975-435.025
MOZHAYETS 4 30 May 14:57:51 15:00:03 13° 88° (E) 15:02:16
NO-84 30 May 15:04:06 15:07:15 24° 229° (SW) 15:10:10 435.350 FM
ITUPSAT 1 30 May 15:22:03 15:26:31 36° 97° (E) 15:30:55 437.325
ITAMSAT 1 30 May 15:27:29 15:32:38 69° 257° (WSW) 15:37:50 435.822/435.867
BEESAT 30 May 15:52:24 15:57:13 71° 103° (ESE) 16:01:59 436.000
AO-7 30 May 15:56:44 16:04:47 54° 258° (WSW) 16:12:55 .
CUTE-I 30 May 16:18:30 16:20:38 12° 53° (NE) 16:22:47 437.470
MOZHAYETS 4 30 May 16:33:07 16:37:47 77° 285° (WNW) 16:42:24
XW-2D 30 May 16:35:36 16:36:40 11° 60° (ENE) 16:37:44 145.860 - 145.880
XW-2B 30 May 16:42:57 16:44:41 13° 61° (ENE) 16:46:24 145.730 - 145.750
XW-2F 30 May 16:51:41 16:53:56 15° 63° (ENE) 16:56:11 145.980 - 146.000
HO-68 30 May 16:51:47 16:55:13 14° 44° (NE) 16:58:39 435.675
KAITUO 1B 30 May 16:52:14 16:53:57 13° 61° (ENE) 16:55:41 145.475/437.950
KKS-1 30 May 16:54:25 16:58:15 28° 95° (E) 17:02:05 437.445
XW-2C 30 May 16:55:52 16:58:26 17° 64° (ENE) 17:01:01 145.795 - 145.815
ITUPSAT 1 30 May 17:00:02 17:04:15 31° 295° (WNW) 17:08:26 437.325
STARS 30 May 17:13:08 17:16:21 20° 93° (E) 17:19:35 437.465
DOVE 4 30 May 17:27:38 17:32:04 71° 75° (ENE) 17:36:19 437.250
CUBESAT XI-V 30 May 17:30:58 17:35:38 81° 103° (ESE) 17:40:15 437.345
BEESAT 30 May 17:31:22 17:34:27 17° 301° (WNW) 17:37:33 436.000
LilacSat-2 30 May 17:37:44 17:41:28 49° 72° (ENE) 17:45:14 437.200
CUTE-I 30 May 17:54:29 17:59:45 70° 72° (ENE) 18:05:03 437.470
PCSat 30 May 17:55:49 18:00:34 32° 111° (ESE) 18:05:21 145.827
XW-2D 30 May 18:06:26 18:10:15 78° 257° (WSW) 18:14:08 145.860 - 145.880
NUDT-PHONESAT 30 May 18:08:45 18:12:29 84° 76° (ENE) 18:16:16 437.300
MOZHAYETS 4 30 May 18:12:42 18:14:08 11° 304° (NW) 18:15:33
XW-2B 30 May 18:14:33 18:18:21 65° 259° (W) 18:22:12 145.730 - 145.750
SEEDS 30 May 18:16:46 18:19:17 16° 61° (ENE) 18:21:49 437.485
KAITUO 1B 30 May 18:23:43 18:27:28 63° 259° (W) 18:31:16 145.475/437.950
XW-2F 30 May 18:23:56 18:27:39 52° 260° (W) 18:31:26 145.980 - 146.000
XW-2C 30 May 18:28:39 18:32:18 44° 261° (W) 18:36:01 145.795 - 145.815
KKS-1 30 May 18:30:50 18:34:49 33° 293° (WNW) 18:38:49 437.445
ISS 30 May 18:31:14 18:33:08 15° 135° (SE) 18:35:02 437.550
HO-68 30 May 18:34:29 18:41:26 55° 65° (ENE) 18:48:26 435.675
STARS 30 May 18:48:43 18:52:56 47° 290° (WNW) 18:57:09 437.465
Tancredo 1 30 May 18:49:54 18:52:37 29° 143° (SE) 18:55:20 437.200
CUBEBUG 2 30 May 18:59:40 19:03:21 30° 67° (ENE) 19:07:09 437.445
UWE-3 30 May 19:00:59 19:04:09 21° 63° (ENE) 19:07:23 435.000/436.395/437.385
XW-2A 30 May 19:01:13 19:04:28 48° 73° (ENE) 19:07:47 145.665 - 145.685
AAUSAT CUBESAT 2 30 May 19:01:56 19:05:05 21° 65° (ENE) 19:08:16 437.432
STRAND 1 30 May 19:05:47 19:09:12 18° 90° (E) 19:12:36 437.568
DOVE 4 30 May 19:08:17 19:10:12 13° 271° (W) 19:12:07 437.250
CUTE 1.7 + AOD 2 30 May 19:09:48 19:14:04 75° 75° (ENE) 19:18:23 437.475
CUBESAT XI-V 30 May 19:09:54 19:12:22 14° 302° (WNW) 19:14:50 437.345
LilacSat-2 30 May 19:13:50 19:16:02 15° 270° (W) 19:18:16 437.200
Oscar 11 30 May 19:16:02 19:18:13 14° 59° (ENE) 19:20:25 .
CUTE-I 30 May 19:36:48 19:40:19 18° 270° (W) 19:43:52 437.470
PCSat 30 May 19:38:36 19:43:49 47° 311° (NW) 19:49:05 145.827
AO-73 30 May 19:46:20 19:50:06 30° 67° (ENE) 19:53:57 145.935
SEEDS 30 May 19:50:17 19:54:30 63° 259° (W) 19:58:45 437.485
ZACube-1 30 May 20:02:42 20:06:48 48° 71° (ENE) 20:11:03 437.345
ISS 30 May 20:05:53 20:09:10 80° 155° (SSE) 20:12:30 437.550
DELFI C3 30 May 20:15:17 20:17:28 14° 62° (ENE) 20:19:38 145.870
HO-68 30 May 20:23:04 20:29:28 34° 265° (W) 20:35:54 435.675
Tancredo 1 30 May 20:25:11 20:28:13 56° 341° (NNW) 20:31:15 437.200
UWE-3 30 May 20:36:14 20:40:17 45° 262° (W) 20:44:30 435.000/436.395/437.385
CUBEBUG 2 30 May 20:36:19 20:39:58 28° 266° (W) 20:43:43 437.445
AAUSAT CUBESAT 2 30 May 20:36:21 20:40:19 41° 262° (W) 20:44:17 437.432
XW-2A 30 May 20:36:21 20:37:31 11° 270° (W) 20:38:41 145.665 - 145.685
EO-88 30 May 20:43:39 20:46:13 18° 65° (ENE) 20:48:48 145.990 - 145.960
STRAND 1 30 May 20:43:45 20:48:52 68° 288° (WNW) 20:53:59 437.568
CUTE 1.7 + AOD 2 30 May 20:48:48 20:50:26 12° 273° (W) 20:52:04 437.475
Oscar 11 30 May 20:49:25 20:53:46 77° 258° (WSW) 20:58:10 .
M-CUBED/EXP-1 PRIME 30 May 21:02:19 21:04:47 19° 100° (E) 21:07:14 437.505
AO-73 30 May 21:22:34 21:26:19 29° 266° (W) 21:30:09 145.935
PCSat 30 May 21:25:43 21:28:36 14° 334° (NNW) 21:31:31 145.827
PRISM 30 May 21:27:54 21:28:59 11° 89° (E) 21:30:04 437.425
SO-50 30 May 21:31:17 21:35:44 53° 122° (ESE) 21:40:10 436.795
ZACube-1 30 May 21:40:23 21:43:23 18° 269° (W) 21:46:28 437.345
ISS 30 May 21:42:46 21:45:53 38° 352° (N) 21:49:01 437.550
DELFI C3 30 May 21:47:50 21:51:47 60° 259° (W) 21:55:44 145.870
ESTCUBE 1 30 May 21:49:49 21:52:04 14° 58° (ENE) 21:54:19 437.505/2401.250
Tancredo 1 30 May 22:01:29 22:04:19 32° 1° (N) 22:07:09 437.200
TIGRISAT 30 May 22:11:03 22:15:03 28° 95° (E) 22:19:06 435.000
EO-88 30 May 22:16:14 22:19:39 37° 262° (W) 22:23:06 145.990 - 145.960
STRAND 1 30 May 22:25:20 22:27:08 12° 307° (NW) 22:28:54 437.568
FO-29 30 May 22:31:12 22:37:40 54° 100° (E) 22:44:52 435.910
M-CUBED/EXP-1 PRIME 30 May 22:36:30 22:39:18 26° 298° (WNW) 22:42:05 437.505
LO-87 30 May 22:43:33 22:47:02 61° 74° (ENE) 22:50:33 145.935 - 145.965
UNISAT 6 30 May 22:43:49 22:48:27 63° 101° (E) 22:53:05 437.425
PRISM 30 May 23:00:43 23:04:46 74° 287° (WNW) 23:08:49 437.425
SO-50 30 May 23:12:31 23:16:27 28° 321° (NW) 23:20:22 436.795
QB50P2 30 May 23:16:52 23:17:58 11° 87° (E) 23:19:06 145.880/145.840
SPROUT 30 May 23:17:45 23:21:11 24° 65° (ENE) 23:24:38 437.525
ISS 30 May 23:19:39 23:22:50 42° 12° (NNE) 23:26:00 437.550
ESTCUBE 1 30 May 23:23:41 23:28:13 84° 254° (WSW) 23:32:48 437.505/2401.250
50 SAT 30 May 23:23:56 23:25:15 12° 62° (ENE) 23:26:33 437.505
YUBILEINY 30 May 23:30:32 23:37:05 25° 78° (ENE) 23:43:40 435.215
Tancredo 1 30 May 23:37:21 23:40:24 60° 20° (NNE) 23:43:25 437.200
RS-15 30 May 23:37:42 23:44:46 18° 95° (E) 23:51:53 29.354- 29.394
AIST 2D 30 May 23:46:44 23:50:07 38° 98° (E) 23:53:27 435.315
TIGRISAT 30 May 23:47:32 23:51:46 36° 292° (WNW) 23:56:03 435.000
EO-79 30 May 23:50:22 23:53:46 23° 93° (E) 23:57:09 145.935-145.965
VELOX 1 30 May 23:58:43 00:03:04 63° 73° (ENE) 00:07:26 145.980
UKube-1 31 May 00:02:25 00:05:32 20° 62° (ENE) 00:08:40 .
FO-29 31 May 00:16:45 00:22:31 35° 296° (WNW) 00:28:51 435.910
DX 1 31 May 00:18:55 00:22:57 38° 68° (ENE) 00:26:59 434.975-435.025
LO-87 31 May 00:20:37 00:20:52 10° 271° (W) 00:21:08 145.935 - 145.965
UNISAT 6 31 May 00:21:34 00:24:42 18° 299° (WNW) 00:27:52 437.425
NANOSAT C BR1 31 May 00:31:55 00:36:07 55° 101° (E) 00:40:17 145.865
BUGSAT 1 31 May 00:39:20 00:42:24 19° 93° (E) 00:45:28 437.445
DUCHIFAT 1 31 May 00:39:56 00:44:09 60° 102° (ESE) 00:48:20 145.980
POLYITAN 1 31 May 00:41:02 00:45:21 76° 104° (ESE) 00:49:38 437.675
Oscar 19 31 May 00:48:52 00:49:51 10° 85° (E) 00:50:51 437.125/150
QB50P2 31 May 00:50:02 00:54:20 81° 283° (WNW) 00:58:37 145.880/145.840
SPROUT 31 May 00:53:02 00:56:56 36° 263° (W) 01:00:53 437.525
50 SAT 31 May 00:54:16 00:57:39 55° 259° (W) 01:01:03 437.505
ISS 31 May 00:56:11 00:59:25 56° 211° (SSW) 01:02:39 437.550
PCSat 31 May 00:57:26 01:00:36 15° 28° (NNE) 01:03:45 145.827
SO-50 31 May 00:57:56 00:58:26 10° 345° (NNW) 00:58:55 436.795
Tancredo 1 31 May 01:13:21 01:15:57 25° 219° (SW) 01:18:32 437.200
AIST 2D 31 May 01:20:42 01:23:02 17° 295° (WNW) 01:25:22 435.315
YUBILEINY 31 May 01:24:06 01:32:51 81° 280° (W) 01:41:43 435.215
EO-79 31 May 01:25:41 01:29:39 38° 291° (WNW) 01:33:36 145.935-145.965
BEESAT 31 May 01:26:07 01:29:06 17° 58° (ENE) 01:32:06 436.000
UKube-1 31 May 01:37:04 01:41:14 48° 260° (W) 01:45:26 .
VELOX 1 31 May 01:37:25 01:39:56 15° 270° (W) 01:42:27 145.980
RS-15 31 May 01:42:47 01:54:44 68° 118° (ESE) 02:06:56 29.354- 29.394
DX 1 31 May 01:55:47 01:59:15 23° 266° (W) 02:02:46 434.975-435.025
MOZHAYETS 4 31 May 02:02:11 02:05:27 19° 61° (ENE) 02:08:43
O/OREOS (USA 219) 31 May 02:04:28 02:06:37 13° 98° (E) 02:08:45 437.305
NANOSAT C BR1 31 May 02:08:36 02:11:25 18° 298° (WNW) 02:14:15 145.865
BUGSAT 1 31 May 02:14:00 02:17:57 43° 290° (WNW) 02:21:54 437.445
DUCHIFAT 1 31 May 02:16:44 02:19:22 16° 299° (WNW) 02:22:01 145.980
POLYITAN 1 31 May 02:18:25 02:20:34 14° 301° (WNW) 02:22:42 437.675
Oscar 19 31 May 02:24:51 02:30:03 77° 104° (ESE) 02:35:11 437.125/150
QB50P2 31 May 02:28:32 02:29:23 11° 303° (WNW) 02:30:14 145.880/145.840
ITUPSAT 1 31 May 02:31:26 02:36:07 59° 71° (ENE) 02:40:51 437.325
